Theta_e
318 318 319 322 324 325 326 326 326 326 325 324 322 321 320 320 319 317 317 317 317 318 319 319 320 322 322 324 325 324 323 323 323 323 325 323 323 322 322 320 320 322 322 323 324 326 326
319 321 323 324 325 326 326 325 323 322 320 318 318 315 313 314 314 312 310 310 310 311 312 313 317 319 320 326 323 324 323 324 324 323 323 324 324 322 323 321 319 319 320 321 323 324 324
322 324 325 325 324 323 322 319 317 313 311 312 310 309 308 307 307 306 306 306 306 307 308 309 310 311 318 322 323 324 324 324 324 323 323 323 324 326 325 325 322 321 320 322 323 323 325
324 324 324 323 321 319 315 313 312 310 308 307 306 306 305 304 302 301 300 299 299 300 303 306 306 310 314 317 318 320 322 323 323 324 323 324 324 324 327 327 328 331 330 334 328 326 325
322 319 317 316 314 311 309 308 307 306 304 302 301 300 299 298 298 298 297 295 295 296 297 302 307 310 312 314 318 318 319 321 322 323 323 324 325 328 327 330 332 332 334 333 331 326 327
313 312 311 309 308 308 306 304 302 301 300 299 298 297 296 295 294 294 294 302 301 304 306 308 308 311 311 312 315 314 316 319 321 322 323 324 326 331 331 332 335 332 334 333 333 329 327
313 310 308 306 305 304 303 301 299 299 298 297 295 293 293 293 293 292 300 303 302 302 304 309 309 310 310 309 309 310 312 313 318 322 326 325 329 331 332 329 329 330 330 333 331 328 329
308 307 306 306 305 304 302 299 297 296 296 295 294 295 296 295 294 300 302 303 304 303 303 302 302 303 303 303 303 303 305 309 312 318 321 326 328 327 326 327 330 331 332 334 331 329 330
305 304 302 302 302 302 301 298 296 296 295 295 295 295 296 297 298 302 303 304 303 302 300 300 302 303 303 304 304 303 305 307 308 311 314 322 322 325 328 330 331 332 334 332 332 330 330
302 301 301 301 301 300 299 298 297 295 294 294 294 293 293 297 298 299 302 301 303 303 296 298 301 304 302 305 306 306 305 310 311 309 309 312 314 321 324 328 328 334 330 332 333 334 337
300 300 301 301 299 296 295 294 294 295 296 296 296 296 295 299 300 298 301 300 301 300 284 296 301 302 300 304 306 305 308 307 312 314 311 312 310 317 319 320 323 327 328 326 327 333 331
300 299 298 296 295 295 296 296 295 295 295 297 296 295 295 297 296 301 301 300 300 290 287 299 299 300 300 300 302 302 302 305 307 311 312 315 311 311 312 315 319 324 326 327 327 322 328
298 299 298 298 297 298 296 296 296 297 297 297 297 297 297 298 297 300 300 297 290 289 296 298 299 301 300 300 299 300 301 303 311 309 310 310 312 312 313 316 317 320 324 328 328 326 332
300 299 299 299 297 296 297 298 297 297 296 295 294 294 299 300 301 301 299 293 291 293 298 299 300 301 301 300 299 299 301 302 310 307 310 313 310 310 307 313 318 320 323 327 330 324 325
299 299 298 297 298 298 298 297 296 294 293 293 295 298 300 301 301 301 292 290 289 296 299 300 300 301 299 300 299 300 300 303 307 306 307 310 308 308 308 308 312 320 322 320 324 321 326
300 298 296 297 297 297 296 294 294 293 293 296 298 299 300 302 301 299 291 292 297 299 299 300 300 301 299 300 299 296 296 299 304 307 304 305 308 310 311 310 310 313 315 325 325 329 329
297 297 297 297 296 294 294 294 293 294 296 299 299 296 301 302 301 293 292 289 299 299 299 300 298 297 299 300 299 300 300 300 305 305 306 305 309 307 311 314 314 313 315 315 314 318 327
297 298 299 296 294 294 295 295 295 295 295 299 297 292 301 301 294 286 288 298 299 298 299 298 300 299 299 299 300 300 301 302 303 306 307 305 307 308 312 313 312 311 313 314 312 317 317
297 297 297 296 296 295 295 294 293 294 295 297 291 295 301 300 289 288 295 299 298 299 298 298 298 299 299 299 298 300 301 301 304 306 306 306 308 307 308 312 307 312 314 313 312 314 311
298 297 296 295 294 293 293 293 293 294 295 296 294 291 293 294 294 297 297 297 298 298 298 299 299 298 299 299 300 300 300 300 304 303 305 306 305 305 307 309 308 309 312 313 309 307 312
296 296 295 293 293 294 295 292 292 293 294 298 290 290 294 289 292 295 296 297 298 298 299 299 297 297 298 294 299 300 299 300 300 303 303 304 300 304 303 307 305 305 308 311 312 313 313
296 295 295 296 296 295 293 295 295 296 295 298 292 291 293 295 296 296 295 296 298 298 298 298 297 297 297 292 296 297 299 300 301 301 301 301 300 302 302 301 300 303 306 306 310 312 312
296 296 296 295 293 295 295 295 295 295 297 297 298 297 292 293 295 294 295 298 299 298 297 298 298 296 295 296 297 297 298 299 299 300 300 300 297 300 301 300 301 300 303 305 307 310 311
296 296 294 295 295 295 295 296 295 295 296 297 298 298 288 289 293 296 297 298 299 298 299 298 298 298 299 298 296 297 297 298 299 299 300 296 298 298 300 300 292 305 305 304 303 303 304
295 295 295 295 295 295 295 296 295 295 295 296 298 297 294 292 294 295 297 298 297 297 297 298 298 298 298 297 295 298 297 297 298 299 299 298 297 295 295 302 301 306 306 305 304 304 302
295 295 295 294 293 293 294 294 294 294 294 296 298 298 292 291 290 296 294 297 297 294 295 297 298 297 297 294 292 298 299 298 299 300 301 300 298 295 296 298 300 307 304 304 303 306 304
293 292 291 291 291 291 291 291 291 294 295 295 298 298 296 296 293 295 292 296 296 296 293 294 297 297 294 293 295 298 302 301 302 301 301 299 296 292 295 292 297 302 303 303 305 304 302
291 291 291 291 291 291 290 290 290 291 294 295 296 297 297 288 292 295 297 296 294 294 297 294 292 293 293 295 294 298 301 302 303 303 302 299 294 291 296 297 297 302 303 305 303 302 300
292 292 291 291 291 290 290 290 290 290 291 295 296 297 298 296 293 296 296 297 296 296 296 294 295 292 290 290 288 295 300 301 302 302 302 303 304 304 297 299 302 303 303 302 302 299 298
Wind_Speed
22 20 18 16 16 15 16 14 12 13 9 7 7 7 10 12 13 14 16 19 20 20 19 21 23 23 16 10 15 28 17 19 29 15 6 7 11 10 15 8 13 20 25 26 25 21 23
20 20 18 18 19 18 16 15 12 8 6 6 7 7 8 11 12 14 15 16 18 20 18 17 18 20 13 29 22 27 36 38 35 26 19 12 8 14 13 15 16 9 19 27 26 26 21
22 21 23 23 23 19 15 12 8 5 3 0 2 2 6 10 10 14 15 17 20 22 20 17 16 15 13 32 12 3 14 33 29 26 12 27 27 14 4 19 21 24 23 26 27 20 10
23 26 27 25 22 17 12 10 9 7 6 4 4 6 7 9 13 15 17 19 21 23 21 19 15 10 15 7 19 34 39 41 31 32 27 25 22 18 17 15 22 21 16 19 12 19 8
29 28 23 21 20 19 17 15 11 9 6 2 3 6 7 9 11 14 18 22 23 22 20 14 6 6 14 13 6 23 34 31 33 40 41 29 19 20 13 18 18 16 24 25 29 9 5
30 28 25 20 19 18 14 12 9 7 7 4 4 5 8 11 14 17 21 21 15 8 3 2 5 4 8 8 12 18 20 30 21 21 19 16 13 19 18 17 24 24 17 23 34 18 19
28 26 22 19 16 16 14 13 12 8 7 5 4 7 10 13 15 15 17 7 6 4 6 5 6 15 25 32 37 21 22 17 15 15 24 22 16 29 38 35 30 30 28 30 31 16 23
25 27 24 23 20 16 14 12 10 8 6 5 7 9 11 13 14 12 10 4 3 4 9 12 19 22 33 26 27 28 35 16 17 24 25 22 31 35 31 33 32 34 32 34 33 27 19
29 24 23 20 19 17 14 12 10 8 7 6 7 8 10 14 6 14 11 3 5 6 4 6 7 7 8 3 6 7 5 13 24 29 29 34 36 27 30 29 36 34 34 37 33 15 27
28 25 23 21 19 16 14 12 10 7 6 5 7 8 10 11 3 7 3 11 8 5 5 7 5 5 8 5 4 7 5 11 6 22 30 23 28 31 34 31 26 33 35 33 37 27 26
28 26 23 21 18 16 13 11 10 8 7 7 8 9 11 9 3 4 9 12 8 2 5 6 2 4 16 8 11 12 15 5 15 20 15 29 32 31 35 35 26 37 16 14 14 19 25
26 23 21 20 18 15 13 11 10 7 5 4 5 7 8 5 6 6 10 11 2 6 6 7 12 16 23 16 11 13 12 10 10 9 19 25 27 26 36 30 30 23 23 19 18 5 10
27 24 22 19 17 15 12 10 8 4 4 5 6 7 8 2 1 7 10 4 5 5 7 5 21 17 24 15 17 16 19 16 7 9 13 18 8 22 32 28 28 25 22 10 5 5 5
24 21 20 18 15 13 10 7 6 5 5 6 5 4 4 3 2 6 5 5 5 5 7 12 14 21 8 11 15 15 15 14 4 5 9 7 11 17 14 3 11 21 19 15 5 9 14
23 21 19 16 13 11 10 8 7 6 6 8 7 5 2 4 2 1 5 4 6 4 6 10 16 5 14 13 8 6 10 8 4 3 5 7 5 1 6 3 6 4 19 20 19 24 9
23 21 18 16 13 12 10 9 10 10 11 12 7 3 3 7 8 6 4 3 3 6 14 13 4 5 9 16 9 6 4 7 6 2 4 5 9 7 2 5 7 2 5 4 11 6 11
21 19 18 17 14 13 12 12 13 12 9 11 6 3 2 4 4 4 3 5 6 11 14 6 6 7 11 9 12 5 5 13 5 8 8 6 4 6 6 3 4 2 1 1 3 3 4
21 20 19 17 15 13 14 14 14 13 10 12 4 3 5 6 3 1 1 4 8 15 11 8 5 5 3 9 6 7 8 11 15 5 9 4 4 6 4 2 9 4 6 4 3 2 3
21 19 19 18 17 16 15 13 15 18 15 4 3 1 3 3 1 3 4 6 8 10 10 5 4 3 3 4 4 7 9 12 13 8 4 4 4 4 3 1 6 5 5 3 2 2 5
20 20 19 17 17 16 15 14 16 19 12 6 2 2 3 3 1 1 4 6 5 6 10 5 5 3 3 4 4 6 8 5 8 7 13 4 2 2 4 5 4 5 7 5 1 2 3
20 18 17 16 17 16 15 15 17 15 10 4 3 3 3 2 3 3 4 3 8 7 2 4 4 5 6 3 4 4 6 7 8 7 8 5 2 4 9 3 5 8 6 5 4 1 4
20 19 17 16 17 16 14 17 17 10 5 3 2 2 3 2 3 4 3 3 7 9 3 5 5 13 6 4 7 11 8 4 6 6 8 8 4 7 5 11 14 6 9 6 6 7 6
20 20 19 19 18 16 17 15 12 8 4 1 1 1 4 3 2 2 2 6 6 9 5 7 9 5 4 7 8 11 11 13 11 11 11 3 1 4 5 11 9 6 9 9 11 9 4
20 20 20 19 17 17 13 7 5 5 4 1 2 1 3 3 0 2 5 5 7 8 6 6 6 3 6 14 8 7 10 12 11 15 11 4 2 1 3 6 5 8 13 16 23 17 14
22 21 18 16 15 12 7 4 3 4 2 1 2 2 2 2 2 5 6 4 7 6 4 5 4 9 10 6 4 6 4 6 5 6 1 9 3 1 2 2 5 7 11 10 11 16 16
20 17 15 14 12 8 5 3 3 2 2 1 1 4 3 2 4 2 4 3 3 4 6 5 6 7 6 3 4 2 3 4 5 7 4 5 5 4 3 3 3 6 13 16 5 6 12
17 16 15 12 9 7 4 3 3 4 2 2 3 3 2 2 3 2 2 2 3 3 2 5 9 7 5 4 3 2 2 7 4 5 5 4 3 4 2 1 4 10 12 9 3 3 3
18 16 13 11 8 5 3 2 3 3 2 2 3 4 3 2 5 5 4 2 3 2 1 5 4 5 4 7 3 3 2 3 4 4 5 2 1 1 2 1 3 11 6 5 3 5 3
16 13 11 8 6 3 1 2 2 2 2 2 2 1 4 3 5 13 23 23 17 18 3 2 3 2 3 3 2 3 2 3 6 4 6 2 4 2 2 2 3 4 4 2 4 4 6
Wind_Direction
220 219 222 220 226 231 233 238 247 244 240 243 262 273 282 286 293 305 302 302 303 299 294 289 290 288 288 238 234 247 253 257 295 303 225 203 220 224 245 239 239 242 258 254 258 252 249
220 217 218 222 228 224 222 225 217 221 229 251 266 305 318 310 308 301 300 303 300 299 299 298 291 285 259 254 263 253 252 257 263 264 252 225 210 212 257 265 237 244 265 254 253 254 253
210 223 218 215 205 202 197 183 184 127 78 44 18 332 341 329 321 316 313 310 304 298 296 296 291 290 260 252 267 181 259 247 244 238 230 227 225 217 224 257 257 256 255 263 250 246 227
212 207 206 203 193 178 168 150 131 123 104 67 35 22 347 329 322 319 317 310 300 292 290 287 288 275 262 279 282 259 260 258 255 257 254 248 241 239 231 265 277 274 267 269 263 230 208
191 182 169 169 159 141 138 131 130 118 98 59 11 6 343 329 328 330 326 317 304 295 285 280 272 232 272 311 260 255 247 247 256 255 257 255 253 238 232 235 255 240 252 250 269 221 220
149 146 144 144 148 137 138 133 122 108 115 91 35 10 343 331 331 329 324 320 312 304 51 160 223 270 278 292 278 319 309 247 250 260 258 237 243 236 222 214 229 238 237 237 248 222 222
156 149 148 146 134 130 136 131 118 121 92 63 8 356 354 347 343 340 345 352 14 3 23 272 291 246 292 283 296 300 300 318 279 254 244 234 230 230 228 229 239 237 230 241 250 226 230
152 143 140 142 131 131 130 126 121 102 83 48 25 11 5 351 346 14 12 28 56 302 295 244 251 264 282 291 291 280 272 284 284 272 257 246 235 239 241 241 239 238 239 236 253 242 221
140 141 139 134 133 134 129 118 106 95 80 59 28 11 1 347 44 43 67 88 4 7 273 269 241 250 260 236 259 317 343 281 267 270 265 260 254 246 241 236 233 236 231 235 239 239 235
140 142 138 135 134 130 123 118 110 99 75 45 29 17 9 11 76 3 63 11 338 3 7 284 221 225 7 234 286 256 286 320 259 258 257 265 270 260 252 259 245 238 235 239 240 239 239
146 140 135 133 134 132 126 118 110 99 80 50 24 9 13 37 14 48 345 346 341 15 9 280 327 75 356 33 334 4 331 318 304 299 254 255 254 259 259 260 260 260 276 255 279 286 255
140 137 135 134 131 127 124 119 112 108 90 59 35 28 30 14 4 9 351 326 132 50 269 317 345 343 353 344 345 325 323 310 285 307 282 259 258 262 254 268 263 265 261 261 265 225 244
138 136 134 135 131 127 123 121 120 111 63 34 20 7 354 347 204 340 343 45 40 117 300 328 341 341 329 325 338 335 333 338 340 324 313 313 263 279 233 253 260 280 247 252 222 202 242
134 133 134 133 130 127 123 121 107 82 43 14 7 355 14 289 308 324 17 53 78 246 272 330 342 312 295 329 329 328 331 317 185 312 292 343 338 3 344 294 272 228 247 222 254 232 248
133 135 132 131 129 127 128 117 96 75 46 24 57 65 96 54 115 138 65 67 206 238 334 320 319 302 310 321 300 340 316 280 256 33 351 307 281 216 239 284 297 280 231 234 243 246 278
137 136 133 129 130 131 123 106 88 64 46 41 50 21 29 97 115 84 75 243 239 286 300 307 259 296 299 320 329 352 290 268 304 263 216 284 297 232 295 251 271 65 343 217 198 236 216
137 136 133 134 137 127 115 96 78 64 50 46 61 47 95 156 135 51 145 227 280 281 303 299 250 286 312 332 313 300 254 300 312 318 298 279 253 292 260 283 298 351 319 13 319 9 259
138 138 140 134 124 114 96 84 79 70 50 58 79 51 147 170 40 50 147 215 287 295 307 297 251 270 289 315 301 319 329 305 332 346 307 279 275 282 306 19 55 21 1 348 86 309 351
138 138 133 125 118 105 94 86 78 66 45 44 86 239 154 145 139 292 278 268 275 288 304 290 273 268 238 280 318 317 319 315 354 11 343 328 339 303 330 325 15 28 345 333 330 332 20
134 132 127 121 113 102 92 82 78 70 50 46 60 25 339 37 216 212 294 282 307 285 293 334 273 296 311 285 286 281 308 314 328 318 329 358 237 44 351 298 294 325 339 313 334 77 212
134 132 124 117 107 94 83 78 72 67 47 42 56 248 201 262 309 288 248 278 312 328 224 292 322 325 293 280 294 279 310 309 300 282 329 337 299 325 298 249 317 303 307 317 26 215 67
133 127 121 110 94 87 81 69 63 53 58 122 152 116 344 283 283 314 333 287 317 341 251 292 294 306 280 195 216 280 284 277 276 307 343 333 317 349 296 340 344 325 353 341 97 48 62
132 126 113 101 97 85 76 69 67 58 93 188 230 222 111 271 286 53 262 310 316 332 282 301 310 298 288 279 265 251 253 261 247 268 291 286 265 6 300 323 319 12 356 51 47 86 117
126 113 109 102 94 80 74 70 98 90 73 226 248 115 95 267 135 237 300 291 316 321 292 293 332 356 290 300 280 286 275 264 253 252 212 239 184 164 265 333 51 60 29 72 67 42 40
115 110 103 99 90 86 101 159 124 101 61 337 217 175 160 272 222 297 308 308 306 301 294 283 305 311 292 309 349 332 327 357 329 359 106 193 127 343 87 313 273 34 16 17 60 43 30
111 110 106 99 101 122 139 133 112 89 28 22 204 188 122 141 259 325 308 306 303 315 330 289 313 317 2 47 47 3 342 318 325 328 24 90 95 118 35 43 332 33 335 319 288 64 346
121 116 113 119 128 127 115 114 81 68 52 4 190 212 152 218 270 117 215 270 318 345 272 305 331 338 28 12 13 341 324 337 340 331 330 329 14 109 142 172 312 336 314 295 45 77 282
129 127 127 129 121 115 108 68 53 42 35 20 231 216 207 194 268 227 222 255 322 187 285 284 13 353 356 24 44 317 305 337 307 340 351 16 340 312 18 44 336 341 335 57 140 237 38
133 133 130 123 118 99 64 26 16 5 14 349 249 176 260 200 245 287 281 274 230 224 149 298 202 253 214 34 21 312 330 310 334 354 323 19 0 44 114 201 338 348 344 254 202 114 56